Dewpoint
71 68 66 63 61 57 44 45 49 48 50 51 52 54 55 56 56 56 63 63 65 67 67 69 73 72 73 73 72 72 72 70 73 74 74 74 73 74 74 74 75 74 75 75 75 74 74 75 75
68 64 63 60 55 48 44 45 46 49 50 52 53 54 54 55 57 59 61 65 66 66 68 69 73 73 73 73 73 72 72 72 72 72 73 73 74 74 74 74 74 74 74 73 73 74 74 74 74
67 64 62 57 51 46 46 46 49 51 52 52 52 52 53 54 56 59 63 65 66 66 67 69 72 72 73 73 72 72 72 73 73 73 73 73 73 74 74 74 73 74 75 75 75 75 75 75 74
61 61 61 57 45 47 47 48 48 49 51 52 51 51 54 56 56 60 63 64 65 65 67 69 70 70 72 72 73 73 72 72 72 72 72 72 73 74 74 74 75 75 75 75 74 74 74 74 72
61 59 54 50 47 47 47 47 46 48 50 48 48 51 53 56 58 59 62 62 63 67 65 65 70 70 70 72 72 72 72 72 72 72 72 72 72 73 74 74 74 74 74 73 73 74 73 70 70
57 55 53 51 46 48 48 47 45 47 47 48 48 50 53 56 58 59 60 62 63 61 64 67 70 71 70 69 71 72 72 72 72 71 72 71 71 72 73 74 74 74 74 73 73 72 70 68 70
55 53 53 52 47 49 48 47 44 44 45 45 46 49 52 54 57 59 60 63 63 63 64 66 69 69 69 69 69 72 71 72 72 72 72 73 73 73 73 73 73 73 72 72 71 70 69 69 70
56 53 50 50 48 48 48 47 45 44 46 47 47 48 50 54 56 59 61 60 61 64 66 68 69 69 70 69 68 70 71 71 71 72 72 72 73 73 73 74 72 72 71 71 71 70 70 70 71
54 53 54 55 49 49 47 48 51 48 47 50 50 48 51 54 55 56 59 58 58 59 62 66 70 70 70 70 70 70 70 70 71 72 71 74 68 69 71 73 72 71 71 70 70 70 70 72 72
53 57 54 61 54 49 47 48 47 45 47 48 48 51 53 54 55 56 56 59 61 60 61 62 68 70 68 66 72 74 73 71 73 74 72 72 71 70 65 71 73 72 72 72 72 72 73 73 66
56 57 56 56 55 55 47 48 46 49 46 48 49 51 54 54 55 55 56 58 60 64 65 65 68 71 68 73 70 74 74 69 70 72 70 66 63 62 62 66 68 67 72 67 69 68 68 64 63
54 56 56 57 56 54 51 49 50 53 49 49 50 52 53 54 55 54 54 57 58 61 62 63 67 70 70 70 69 72 70 69 62 65 67 67 64 65 66 65 66 67 66 66 66 61 66 66 65
53 57 58 58 57 56 53 51 48 50 50 50 51 52 53 55 55 56 55 57 59 59 62 66 67 72 70 71 67 65 65 63 63 65 67 64 61 66 67 68 71 74 64 64 65 64 66 66 64
55 56 58 59 57 56 55 52 51 50 49 50 52 52 53 56 58 56 56 56 57 59 60 62 65 68 67 68 71 65 66 67 69 64 66 68 65 71 71 68 70 66 66 65 66 68 66 64 60
56 55 57 57 55 54 56 51 57 52 48 50 51 53 53 54 57 58 60 57 57 58 61 62 63 65 67 68 68 68 61 61 62 66 68 68 69 71 74 68 66 66 70 72 68 66 64 63 61
53 55 54 56 54 56 54 51 55 53 48 48 50 52 54 55 55 59 59 58 58 59 62 63 60 63 65 67 68 70 70 68 64 62 65 68 70 71 72 66 66 68 68 65 65 62 62 62 60
51 48 51 52 54 55 53 52 54 54 51 48 49 52 54 55 59 58 57 60 59 64 63 63 63 62 64 69 68 70 70 67 70 63 64 69 68 70 70 67 67 70 67 66 64 63 65 62 61
43 42 46 48 53 54 50 48 51 52 53 57 49 52 54 59 55 57 57 59 61 63 65 65 64 66 67 68 69 64 65 63 65 67 70 69 69 70 71 68 70 69 64 65 67 71 69 66 64
45 41 44 48 53 51 51 46 51 50 50 56 52 52 52 56 60 63 58 58 59 63 65 66 66 70 67 66 64 63 67 66 66 71 69 70 69 71 73 68 68 68 68 71 72 70 69 63 65
39 41 44 48 50 50 50 50 50 50 51 51 54 50 53 52 61 59 60 58 59 62 65 67 67 70 70 65 68 65 70 65 68 70 69 70 70 72 71 72 70 70 66 70 71 73 68 63 66
33 32 39 46 48 48 48 48 50 50 52 54 53 56 52 53 54 57 58 59 59 63 65 67 69 71 71 73 67 68 68 68 65 65 67 70 70 70 72 73 71 71 71 66 71 70 71 64 66
28 29 30 36 44 48 45 47 49 49 47 51 49 50 52 50 53 54 54 56 58 62 65 68 69 70 71 71 71 73 67 63 66 69 70 69 70 70 71 71 70 72 69 73 71 70 72 71 67
29 32 31 35 35 40 38 39 43 48 49 50 51 50 50 52 54 53 54 57 57 60 63 66 70 71 73 72 73 68 71 70 70 71 73 73 73 71 70 71 70 72 70 73 74 73 74 70 67
29 30 32 34 32 30 39 28 42 44 46 52 53 51 52 53 54 56 57 59 57 58 61 65 70 72 72 72 72 72 70 72 73 67 69 65 68 69 71 72 72 73 72 73 73 73 73 73 72
31 29 32 31 32 36 38 27 37 43 38 44 48 51 54 55 54 56 57 57 60 60 61 64 70 71 71 70 71 72 71 72 71 71 66 73 70 69 74 74 74 72 74 73 73 74 73 72 70
29 27 30 32 26 34 35 23 36 34 40 45 47 48 52 54 56 55 57 59 60 62 61 63 68 71 71 70 72 73 74 68 67 68 71 65 66 65 75 72 72 72 73 73 74 71 70 74 71
27 25 22 18 18 19 22 30 32 36 39 43 43 49 51 55 55 56 57 59 60 60 62 64 67 70 70 69 71 72 73 71 68 75 71 66 73 70 71 70 71 72 72 73 74 70 72 72 73
24 28 21 18 22 27 27 28 30 39 41 42 44 47 54 56 58 59 59 59 61 60 61 64 65 69 70 69 70 70 70 72 71 71 71 74 72 72 74 71 70 71 72 72 75 72 74 73 72
24 23 24 21 27 25 23 31 38 41 39 43 47 48 53 55 57 60 60 61 60 61 62 63 64 66 68 68 69 70 69 69 71 69 71 72 71 72 72 72 71 71 71 72 75 74 72 72 72
31 28 24 23 29 28 29 27 38 39 44 45 48 49 52 55 57 59 61 62 62 66 65 64 64 64 66 68 70 69 69 70 68 70 70 72 73 72 73 73 74 72 72 72 73 71 70 71 71
Lifted_Index
-4 -4 -4 -3 -3 -3 -1 -1 -1 -1 -1 -1 -2 -2 -2 -2 -2 -2 -1 -1 -2 -2 -1 -2 -2 -2 -2 -2 -2 -2 -2 -2 -3 -3 -4 -4 -4 -4 -4 -5 -5 -5 -5 -5 -5 -4 -4 -5 -5
-4 -4 -3 -3 -3 -2 -1 -1 -1 -1 -1 -1 -1 -2 -2 -1 -1 -1 -1 -2 -2 -1 -1 -1 -2 -2 -2 -2 -2 -2 -2 -2 -2 -3 -3 -4 -4 -4 -5 -5 -5 -5 -5 -5 -5 -5 -5 -5 -5
-4 -4 -3 -3 -2 -1 -1 -1 -1 -1 -1 -1 -1 -1 -1 -1 -0 -1 -1 -1 -1 -1 -1 -1 -1 -1 -2 -2 -2 -2 -2 -2 -2 -2 -3 -3 -4 -5 -5 -5 -5 -5 -5 -5 -5 -5 -5 -5 -5
-3 -3 -3 -3 -2 -1 -1 -1 -1 -1 -1 -1 -0 -0 -0 -0 -0 -0 -1 -1 -1 -1 -0 -0 -0 -1 -1 -2 -2 -2 -2 -2 -2 -2 -2 -3 -4 -5 -5 -5 -6 -6 -6 -5 -5 -5 -5 -5 -4
-3 -3 -3 -2 -2 -1 -1 -1 -0 -0 -0 0 0 0 -0 -0 -0 -0 -0 -1 -0 -0 0 0 -0 -0 -1 -1 -1 -2 -2 -2 -2 -1 -1 -2 -3 -4 -5 -6 -6 -6 -5 -5 -5 -5 -5 -4 -4
-3 -3 -2 -1 -1 -1 -1 -0 0 0 0 1 0 0 0 0 0 -0 -0 -0 -0 0 1 1 0 -0 -0 -0 -1 -1 -1 -2 -1 -1 -2 -2 -3 -4 -5 -6 -6 -5 -5 -5 -5 -5 -4 -4 -4
-3 -2 -2 -1 -1 -1 -0 -0 0 1 1 1 1 0 0 0 0 -0 -0 0 0 1 1 1 1 0 0 0 0 -1 -1 -1 -1 -1 -2 -3 -4 -5 -5 -5 -5 -5 -5 -5 -5 -4 -4 -4 -5
-2 -2 -2 -1 -1 -1 -0 -0 0 0 0 0 0 0 0 0 0 -0 -0 0 1 1 1 1 1 1 1 0 -0 -0 -1 -1 -1 -2 -3 -4 -4 -5 -5 -5 -5 -5 -5 -4 -4 -4 -4 -5 -5
-2 -2 -1 -1 -1 -1 -0 -0 -0 0 0 -0 -0 0 0 0 0 -0 -0 0 1 1 1 1 1 1 0 -0 -1 -1 -1 -1 -2 -3 -3 -4 -4 -4 -4 -5 -5 -5 -5 -4 -4 -4 -5 -5 -5
-2 -2 -2 -2 -1 -1 -0 -0 -0 -0 -0 -0 -0 -0 0 -0 -0 -1 -1 -1 -0 -0 0 1 0 -0 -1 -1 -2 -2 -2 -3 -3 -4 -4 -4 -3 -3 -3 -4 -4 -5 -4 -4 -4 -5 -5 -5 -5
-1 -2 -2 -2 -2 -1 -1 -1 -1 -1 -1 -0 -0 -0 -0 -1 -1 -1 -1 -1 -1 -1 -1 -1 -1 -2 -2 -2 -3 -3 -4 -4 -4 -4 -3 -3 -3 -2 -2 -3 -4 -4 -4 -4 -4 -4 -5 -5 -5
-1 -1 -2 -2 -2 -2 -1 -1 -1 -1 -1 -1 -0 -1 -1 -1 -1 -1 -1 -1 -1 -2 -2 -2 -3 -3 -3 -4 -4 -4 -4 -4 -3 -3 -3 -3 -2 -2 -3 -3 -4 -4 -4 -4 -4 -4 -4 -5 -5
-1 -1 -2 -2 -2 -2 -2 -2 -1 -1 -1 -1 -1 -1 -1 -1 -1 -1 -1 -1 -1 -2 -2 -3 -3 -4 -4 -4 -4 -3 -3 -3 -3 -3 -3 -3 -3 -3 -4 -4 -4 -5 -4 -4 -4 -4 -4 -4 -4
-2 -1 -1 -2 -2 -2 -2 -2 -1 -1 -1 -1 -1 -1 -1 -1 -2 -1 -1 -1 -1 -1 -2 -3 -3 -3 -4 -4 -4 -3 -3 -3 -3 -3 -3 -3 -4 -4 -4 -4 -4 -4 -4 -4 -4 -4 -4 -4 -4
-2 -2 -1 -1 -2 -2 -2 -2 -1 -1 -1 -1 -1 -1 -1 -1 -2 -2 -2 -1 -1 -1 -2 -2 -3 -3 -3 -4 -4 -3 -3 -3 -3 -3 -3 -4 -4 -5 -5 -4 -4 -4 -5 -5 -4 -4 -4 -4 -4
-2 -2 -2 -1 -2 -2 -1 -1 -1 -1 -1 -1 -1 -1 -2 -2 -2 -2 -2 -2 -2 -2 -2 -2 -2 -2 -3 -4 -4 -4 -4 -3 -3 -3 -3 -4 -5 -5 -5 -4 -4 -4 -4 -4 -4 -3 -3 -4 -4
-2 -2 -2 -2 -2 -2 -1 -1 -1 -2 -1 -1 -1 -2 -2 -2 -2 -2 -2 -2 -2 -2 -2 -2 -2 -2 -3 -4 -4 -4 -4 -3 -3 -3 -4 -4 -5 -5 -5 -4 -4 -4 -4 -4 -4 -4 -4 -4 -4
-1 -1 -2 -2 -2 -2 -1 -0 -1 -1 -2 -1 -1 -1 -2 -2 -2 -2 -2 -2 -3 -3 -3 -3 -3 -3 -3 -3 -4 -3 -3 -3 -3 -3 -4 -4 -5 -5 -5 -4 -4 -4 -4 -4 -5 -5 -5 -5 -5
-1 -1 -2 -3 -3 -2 -1 -1 -1 -1 -1 -2 -1 -1 -1 -2 -2 -2 -2 -2 -3 -3 -3 -3 -3 -4 -4 -3 -3 -3 -3 -3 -3 -4 -4 -4 -5 -5 -5 -5 -4 -4 -4 -4 -5 -6 -5 -5 -4
-2 -2 -2 -3 -3 -2 -2 -2 -1 -1 -1 -2 -2 -1 -1 -2 -2 -2 -3 -3 -3 -3 -4 -4 -4 -4 -4 -3 -3 -3 -3 -3 -3 -4 -4 -4 -5 -5 -5 -5 -4 -4 -4 -4 -5 -6 -5 -5 -4
-2 -1 -2 -2 -2 -2 -2 -2 -2 -2 -1 -2 -2 -2 -2 -2 -2 -2 -2 -2 -3 -3 -4 -4 -4 -4 -4 -4 -4 -4 -4 -4 -3 -3 -4 -4 -5 -5 -5 -5 -4 -4 -4 -5 -5 -6 -5 -5 -5
-1 -1 -1 -2 -2 -1 -1 -1 -2 -2 -2 -1 -1 -2 -2 -2 -2 -2 -2 -2 -3 -3 -4 -4 -4 -5 -5 -4 -4 -4 -4 -3 -3 -4 -4 -4 -4 -4 -5 -4 -4 -4 -4 -5 -6 -6 -6 -5 -5
-0 -0 -1 -2 -2 -1 -1 -1 -1 -2 -2 -2 -2 -2 -2 -2 -2 -2 -2 -2 -3 -3 -4 -4 -5 -5 -5 -5 -4 -4 -4 -4 -4 -4 -4 -4 -4 -4 -4 -4 -4 -4 -5 -5 -6 -6 -6 -6 -5
-1 -1 -1 -2 -2 -1 -1 -1 -1 -2 -2 -2 -2 -2 -2 -2 -2 -3 -3 -3 -3 -3 -3 -4 -5 -5 -5 -5 -5 -4 -4 -4 -4 -4 -4 -4 -4 -4 -4 -4 -4 -4 -5 -5 -6 -6 -6 -6 -5
-1 -1 -1 -1 -1 -1 -1 -1 -1 -1 -1 -1 -2 -3 -3 -3 -3 -3 -3 -3 -3 -3 -3 -4 -5 -5 -5 -5 -5 -5 -4 -4 -4 -4 -3 -3 -4 -4 -5 -5 -5 -5 -5 -5 -6 -6 -6 -5 -5
-1 -1 -1 -1 -1 -1 -1 -1 -1 -1 -1 -1 -2 -2 -3 -3 -4 -4 -3 -3 -3 -3 -3 -4 -5 -5 -5 -5 -5 -5 -5 -4 -4 -4 -3 -3 -3 -4 -5 -5 -5 -5 -5 -5 -5 -5 -5 -5 -5
-0 -0 -0 -1 -1 -1 -1 -1 -1 -0 -1 -1 -1 -2 -3 -4 -4 -4 -4 -4 -4 -3 -4 -4 -4 -5 -5 -5 -5 -5 -5 -4 -4 -4 -4 -3 -4 -4 -5 -5 -5 -5 -5 -5 -5 -5 -5 -5 -5
0 0 -0 -0 -0 -0 -0 -0 -1 -1 -1 -1 -1 -2 -3 -4 -4 -4 -4 -4 -4 -4 -4 -4 -4 -5 -5 -5 -5 -5 -5 -4 -4 -4 -4 -4 -4 -5 -5 -5 -5 -5 -5 -5 -5 -5 -5 -5 -5
0 0 -0 -0 -0 -0 -0 -0 -1 -1 -1 -1 -1 -2 -2 -3 -4 -4 -4 -4 -4 -4 -4 -4 -4 -4 -5 -5 -5 -5 -5 -5 -5 -5 -5 -5 -5 -5 -5 -5 -4 -4 -4 -5 -5 -5 -5 -5 -4
-0 -0 -0 -0 -0 -0 -0 -0 -0 -0 -1 -1 -1 -1 -2 -3 -3 -4 -4 -4 -4 -4 -4 -4 -4 -4 -4 -5 -5 -5 -5 -5 -5 -5 -5 -5 -5 -5 -4 -4 -4 -4 -4 -5 -5 -5 -4 -4 -4